Regional Weather Roundup
Issued by NWS

Home | Current Version | Previous Version | Graphics & Text | Print | Product List | Glossary On
Versions: 1 2 3 4 5 6 7 8 9 10 11 12 13 14 15 16 17 18 19 20 21 22 23 24 25 26 27 28 29 30 31 32 33 34 35 36 37 38 39 40 41 42 43 44 45 46 47 48 49 50
000
ASUS45 KBOU 260407
RWRCO

WEATHER ROUNDUP FOR COLORADO
NATIONAL WEATHER SERVICE DENVER/BOULDER CO
1000 PM MDT FRI JUL 25 2014

NOTE: "FAIR" INDICATES FEW OR NO CLOUDS BELOW 12000 FEET WITH NO
SIGNIFICANT WEATHER AND/OR OBSTRUCTIONS TO VISIBILITY.

COZ001>005-013-030-031-260500-
...NORTHWEST COLORADO...

CITY           SKY/WX    TMP DP  RH WIND       PRES   REMARKS
CRAIG          MOCLDY    62  50  64 S3        30.20S
HAYDEN         MOCLDY    66  45  45 SE13      30.23F
MEEKER         MOCLDY    61  54  77 NE6       30.22R
MOUNT WERNER   NOT AVBL
STEAMBOAT SPGS MOCLDY    67  47  47 SE8       30.26S
WALDEN         CLOUDY    55  45  67 S8        30.38R
$$

COZ006>008-011-260500-
...WEST CENTRAL VALLEYS...

CITY           SKY/WX    TMP DP  RH WIND       PRES   REMARKS
GRAND JUNCTION CLOUDY    73  61  65 CALM      30.09R
MONTROSE       PTCLDY    73  54  51 S8        30.19R
EAGLE          CLEAR     66  52  59 E5        30.28R
RIFLE          PTCLDY    71  48  43 SE8       30.16R
DELTA          PTCLDY    80  50  35 NE7       30.14R
NUCLA          PTCLDY    81  45  28 CALM      30.20R
$$

COZ017>023-064>068-260500-
...SOUTHWEST COLORADO...

CITY           SKY/WX    TMP DP  RH WIND       PRES   REMARKS
DURANGO        CLEAR     76  40  27 W3        30.22R
CORTEZ         CLEAR     74  45  35 CALM      30.17R
PAGOSA SPRINGS CLEAR     71  44  37 CALM      30.33R
TELLURIDE      PTCLDY    63  50  63 SE6       30.46R
WOLF CREEK PAS NOT AVBL
$$

COZ009-010-012-014-032>034-037-058>063-260500-
...CENTRAL COLORADO...

CITY           SKY/WX    TMP DP  RH WIND       PRES   REMARKS
ASPEN          CLEAR     61  51  70 SE8       30.35R
BUENA VISTA    CLEAR     60  51  73 W9        30.38R
COPPER MTN     PTCLDY    54  37  54 S10       30.69R
BERTHOUD PASS  FAIR      45  32  61 W18       30.71S
COTTONWOOD PAS CLEAR     61  46  59 W8        30.52R
GUNNISON       CLEAR     64  48  55 N6        30.39R
KREMMLING      PTCLDY    55  50  82 CALM      30.35R
LEADVILLE      CLEAR     47  45  93 E3        30.52R
MONARCH PASS   PTCLDY    50  41  71 NW14      30.78R
SALIDA         CLEAR    N/A N/A N/A NW7       30.42R
SUNLIGHT       CLEAR     54  46  76 CALM      30.59R
WILKERSON PASS NOT AVBL
$$

COZ069>075-260500-
...SAN LUIS VALLEY/SANGRE DE CRISTO MOUNTAINS...

CITY           SKY/WX    TMP DP  RH WIND       PRES   REMARKS
ALAMOSA        PTCLDY    61  50  67 S3        30.33R
LA VETA PASS   CLEAR     57  43  58 CALM      30.55R
SAGUACHE       PTCLDY    63  50  63 NW9       30.37R
$$

COZ035-036-038>040-260500-
...NORTHERN COLORADO FRONT RANGE...

CITY           SKY/WX    TMP DP  RH WIND       PRES   REMARKS
DENVER INTL AP MOCLDY    72  55  55 W10       30.12R
DMNS CITY PARK   N/A     70  55  58 SW8       30.13R
AURORA         MOCLDY    70  56  60 SW14      30.15R
FRONT RANGE AP NOT AVBL
ERIE MUNI ARPT MOCLDY    69  52  54 S6        30.09F
BOULDER MUN AP MOCLDY    77  46  33 SW6       30.10F
CENTENNIAL     MOCLDY    66  57  72 S13       30.16F
BROOMFIELD     MOCLDY    70  54  56 SW5       30.15R
FORT COLLINS   PTCLDY    72  50  46 S10       30.09R
LONGMONT       PTCLDY    73  52  47 SW5       30.10F
$$

COZ041-046-047-076>085-087-088-260500-
...PIKES PEAK/PALMER DIVIDE AND SOUTHERN FOOTHILLS...

CITY           SKY/WX    TMP DP  RH WIND       PRES   REMARKS
COLO. SPRINGS  MOCLDY    72  52  49 NW9       30.22R
A. F. ACADEMY  PTCLDY    69  53  56 N8        30.25R
ELLICOTT       MOCLDY    72  52  49 N7        30.20R
FALCON         MOCLDY    66  53  63 N6        30.27S
FORT CARSON    PTCLDY    71  53  53 NW5       30.19R
LIMON          CLOUDY    72  53  51 W6        30.15R
MONUMENT HILL  MOCLDY    61  54  77 S5        30.27F
TRINIDAD       MOCLDY    73  54  51 W9        30.18R
$$

COZ042>045-048>051-090-091-260500-
...NORTHEAST COLORADO...

CITY           SKY/WX    TMP DP  RH WIND       PRES   REMARKS
GREELEY ARPT   PTCLDY    75  54  46 SW13      30.06R
AKRON          MOCLDY    75  49  39 NW3       30.07R
BURLINGTON     CLOUDY    74  61  63 VRB5      30.04R
WRAY             N/A     80  61  52 NE6       29.98F
STERLING       MOCLDY    77  59  53 S3        30.01S
HOLYOKE        CLOUDY    79  63  57 CALM      30.00R
FORT MORGAN    MOCLDY    70  57  61 W5        30.07R
$$

COZ086-089-092>099-260500-
...SOUTHEAST COLORADO...

CITY           SKY/WX    TMP DP  RH WIND       PRES   REMARKS
PUEBLO         PTCLDY    74  60  61 N8        30.09R
LA JUNTA       CLOUDY    83  52  34 E9        30.00R
LAMAR          CLOUDY    74  64  71 NE14      30.00F
SPRINGFIELD      N/A     79  56  45 N18G24    30.03R
$$


USA.gov is the U.S. government's official web portal to all federal, state and local government web resources and services.